timestamp,surface_pressure_avg,surface_temp_avg,battery_voltage,lat,long
2022-08-12 00:09:01+00:00,371.4763,18.59,11.7,47.84626,-54.09684
2022-08-12 00:19:01+00:00,369.5511,18.6,11.7,47.84626,-54.09684
2022-08-12 00:29:01+00:00,365.4564,18.6,11.7,47.84626,-54.09684
2022-08-12 00:39:01+00:00,360.2879,18.6,11.7,47.84626,-54.09684
2022-08-12 00:49:01+00:00,354.80300000000005,18.59,11.7,47.84626,-54.09684
2022-08-12 00:59:01+00:00,351.5463,18.5,11.7,47.84626,-54.09684
2022-08-12 01:09:01+00:00,348.2863,18.5,11.7,47.84626,-54.09684
2022-08-12 01:19:01+00:00,340.3214,18.5,11.7,47.84626,-54.09684
2022-08-12 01:29:01+00:00,333.0096,18.5,11.7,47.84626,-54.09684
2022-08-12 01:39:01+00:00,325.703,18.5,11.7,47.84626,-54.09684
2022-08-12 01:49:01+00:00,318.2496,18.5,11.7,47.84626,-54.09684
2022-08-12 01:59:01+00:00,308.7013,18.5,11.7,47.84626,-54.09684
2022-08-12 02:09:01+00:00,298.2363,18.5,11.7,47.84626,-54.09684
2022-08-12 02:19:00+00:00,291.0146,18.5,11.7,47.84626,-54.09684
2022-08-12 02:29:00+00:00,279.8297,18.5,11.7,47.84626,-54.09684
2022-08-12 02:39:00+00:00,270.1564,18.56,11.7,47.84626,-54.09684
2022-08-12 02:49:00+00:00,261.4931,18.59,11.7,47.84626,-54.09684
2022-08-12 02:59:00+00:00,252.7798,18.6,11.7,47.84626,-54.09684
2022-08-12 03:09:00+00:00,240.4681,18.6,11.7,47.84626,-54.09684
2022-08-12 03:19:01+00:00,230.3531,18.6,11.7,47.84626,-54.09684
2022-08-12 03:29:01+00:00,221.4331,18.6,11.7,47.84626,-54.09684
2022-08-12 03:39:01+00:00,211.5381,18.64,11.7,47.84626,-54.09684
2022-08-12 03:49:01+00:00,203.8848,18.68,11.7,47.84626,-54.09684
2022-08-12 03:59:01+00:00,197.8865,18.69,11.7,47.84626,-54.09684
2022-08-12 04:09:01+00:00,192.1615,18.7,11.7,47.84626,-54.09684
2022-08-12 04:19:00+00:00,188.0331,18.7,11.7,47.84626,-54.09684
2022-08-12 04:29:00+00:00,184.0965,18.7,11.7,47.84626,-54.09684
2022-08-12 04:39:00+00:00,180.3332,18.7,11.7,47.84626,-54.09684
2022-08-12 04:49:00+00:00,176.7815,18.7,11.7,47.84626,-54.09684
2022-08-12 04:59:00+00:00,173.4215,18.7,11.7,47.84626,-54.09684
2022-08-12 05:09:00+00:00,171.8048,18.7,11.7,47.84626,-54.09684
2022-08-12 05:19:01+00:00,171.5265,18.7,11.61,47.84626,-54.09684
2022-08-12 05:29:01+00:00,169.3915,18.7,11.61,47.84626,-54.09684
2022-08-12 05:39:01+00:00,167.5848,18.7,11.61,47.84626,-54.09684
2022-08-12 05:49:01+00:00,169.0414,18.7,11.61,47.84626,-54.09684
2022-08-12 05:59:01+00:00,169.8132,18.7,11.61,47.84626,-54.09684
2022-08-12 06:09:01+00:00,169.7214,18.7,11.61,47.84626,-54.09684
2022-08-12 06:19:00+00:00,170.4549,18.7,11.61,47.84626,-54.09684
2022-08-12 06:29:00+00:00,171.3299,18.7,11.61,47.84626,-54.09684
2022-08-12 06:39:00+00:00,173.1231,18.7,11.61,47.84626,-54.09684
2022-08-12 06:49:00+00:00,177.0915,18.7,11.61,47.84626,-54.09684
2022-08-12 06:59:00+00:00,182.4414,18.7,11.61,47.84626,-54.09684
2022-08-12 07:09:00+00:00,188.4798,18.7,11.61,47.84626,-54.09684
2022-08-12 07:19:01+00:00,193.4465,18.7,11.61,47.84626,-54.09684
2022-08-12 07:29:01+00:00,199.3081,18.7,11.61,47.84626,-54.09684
2022-08-12 07:39:01+00:00,203.0498,18.7,11.61,47.84626,-54.09684
2022-08-12 07:49:01+00:00,203.8482,18.7,11.61,47.84626,-54.09684
2022-08-12 07:59:01+00:00,205.8415,18.68,11.61,47.84626,-54.09684
2022-08-12 08:09:01+00:00,207.6198,18.66,11.61,47.84626,-54.09684
2022-08-12 08:19:01+00:00,211.7081,18.63,11.61,47.84626,-54.09684
2022-08-12 08:29:01+00:00,219.8214,18.64,11.61,47.84626,-54.09684
2022-08-12 08:39:01+00:00,227.5515,18.66,11.61,47.84626,-54.09684
2022-08-12 08:49:01+00:00,232.1214,18.68,11.61,47.84626,-54.09684
2022-08-12 08:59:01+00:00,239.3065,18.69,11.61,47.84626,-54.09684
2022-08-12 09:09:01+00:00,248.3581,18.7,11.61,47.84626,-54.09684
2022-08-12 09:19:00+00:00,257.0197,18.7,11.61,47.84626,-54.09684
2022-08-12 09:29:00+00:00,262.7931,18.7,11.61,47.84626,-54.09684
2022-08-12 09:39:00+00:00,270.6164,18.7,11.61,47.84626,-54.09684
2022-08-12 09:49:00+00:00,279.9447,18.7,11.61,47.84626,-54.09684
2022-08-12 09:59:00+00:00,288.2364,18.7,11.61,47.84626,-54.09684
2022-08-12 10:09:00+00:00,294.8014,18.7,11.61,47.84626,-54.09684
2022-08-12 10:19:00+00:00,304.8531,18.7,11.61,47.84626,-54.09684
2022-08-12 10:29:00+00:00,316.0197,18.7,11.61,47.84626,-54.09684
2022-08-12 10:39:00+00:00,322.6462,18.7,11.61,47.84626,-54.09684
2022-08-12 10:49:00+00:00,324.958,18.7,11.61,47.84626,-54.09684
2022-08-12 10:59:00+00:00,331.0912,18.72,11.61,47.84626,-54.09684
2022-08-12 11:09:00+00:00,337.593,18.73,11.61,47.84626,-54.09684
2022-08-12 11:19:00+00:00,340.4813,18.72,11.61,47.84626,-54.09684
2022-08-12 11:29:00+00:00,339.9765,18.71,11.61,47.84626,-54.09684
2022-08-12 11:39:00+00:00,342.36800000000005,18.7,11.61,47.84626,-54.09684
2022-08-12 11:49:00+00:00,343.9347,18.7,11.61,47.84626,-54.09684
2022-08-12 11:59:00+00:00,345.3195,18.71,11.61,47.84626,-54.09684
2022-08-12 12:09:00+00:00,345.8464,18.71,11.61,47.84626,-54.09684
2022-08-12 12:19:00+00:00,345.4865,18.7,11.7,47.84626,-54.09684
2022-08-12 12:29:00+00:00,345.3613,18.74,11.7,47.84626,-54.09684
2022-08-12 12:39:00+00:00,343.8596,18.76,11.7,47.84626,-54.09684
2022-08-12 12:49:00+00:00,340.86800000000005,18.75,11.7,47.84626,-54.09684
2022-08-12 12:59:00+00:00,334.038,18.76,11.7,47.84626,-54.09684
2022-08-12 13:09:00+00:00,328.2129,18.75,11.7,47.84626,-54.09684
2022-08-12 13:19:00+00:00,325.7114,18.74,11.93,47.84626,-54.09684
2022-08-12 13:29:00+00:00,320.6981,18.76,11.93,47.84626,-54.09684
2022-08-12 13:39:00+00:00,314.3047,18.77,11.93,47.84626,-54.09684
2022-08-12 13:49:00+00:00,310.5197,18.77,11.93,47.84626,-54.09684
2022-08-12 13:59:00+00:00,302.0481,18.78,11.93,47.84626,-54.09684
2022-08-12 14:09:00+00:00,291.9997,18.79,11.93,47.84626,-54.09684
2022-08-12 14:19:01+00:00,285.6631,18.8,11.86,47.84626,-54.09684
2022-08-12 14:29:01+00:00,278.8447,18.8,11.86,47.84626,-54.09684
2022-08-12 14:39:01+00:00,265.2581,18.8,11.86,47.84626,-54.09684
2022-08-12 14:49:01+00:00,253.8548,18.8,11.86,47.84626,-54.09684
2022-08-12 14:59:01+00:00,246.7531,18.8,11.86,47.84626,-54.09684
2022-08-12 15:09:01+00:00,238.7698,18.8,11.86,47.84626,-54.09684
2022-08-12 15:19:01+00:00,227.5397,18.8,12.01,47.84626,-54.09684
2022-08-12 15:29:01+00:00,217.7714,18.8,12.01,47.84626,-54.09684
2022-08-12 15:39:01+00:00,210.9748,18.8,12.01,47.84626,-54.09684
2022-08-12 15:49:01+00:00,203.4581,18.85,12.01,47.84626,-54.09684
2022-08-12 15:59:01+00:00,190.4031,18.9,12.01,47.84626,-54.09684
2022-08-12 16:09:01+00:00,183.3065,18.9,12.01,47.84626,-54.09684
2022-08-12 16:19:00+00:00,180.9181,18.9,11.86,47.84626,-54.09684
2022-08-12 16:29:00+00:00,172.9581,18.9,11.86,47.84626,-54.09684
2022-08-12 16:39:00+00:00,164.5282,18.9,11.86,47.84626,-54.09684
2022-08-12 16:49:00+00:00,166.0898,18.9,11.86,47.84626,-54.09684
2022-08-12 16:59:00+00:00,167.7249,18.9,11.86,47.84626,-54.09684
2022-08-12 17:09:00+00:00,162.4265,18.9,11.86,47.84626,-54.09684
2022-08-12 17:19:00+00:00,159.3081,18.92,11.86,47.84626,-54.09684
2022-08-12 17:29:00+00:00,161.6281,18.95,11.86,47.84626,-54.09684
2022-08-12 17:39:00+00:00,162.1414,18.97,11.86,47.84626,-54.09684
2022-08-12 17:49:00+00:00,161.1881,18.99,11.86,47.84626,-54.09684
2022-08-12 17:59:00+00:00,161.7532,19.0,11.86,47.84626,-54.09684
2022-08-12 18:09:00+00:00,162.2916,19.0,11.86,47.84626,-54.09684
2022-08-12 18:19:00+00:00,163.8698,19.0,11.86,47.84626,-54.09684
2022-08-12 18:29:00+00:00,164.6915,19.0,11.86,47.84626,-54.09684
2022-08-12 18:39:00+00:00,167.4382,18.99,11.86,47.84626,-54.09684
2022-08-12 18:49:00+00:00,172.9598,18.98,11.86,47.84626,-54.09684
2022-08-12 18:59:00+00:00,176.2315,18.96,11.86,47.84626,-54.09684
2022-08-12 19:09:00+00:00,179.2581,18.93,11.86,47.84626,-54.09684
2022-08-12 19:19:00+00:00,186.4681,18.9,11.77,47.84626,-54.09684
2022-08-12 19:29:00+00:00,192.6015,18.9,11.77,47.84626,-54.09684
2022-08-12 19:39:00+00:00,194.9481,18.9,11.77,47.84626,-54.09684
2022-08-12 19:49:00+00:00,202.8748,18.9,11.77,47.84626,-54.09684
2022-08-12 19:59:00+00:00,211.8148,18.9,11.77,47.84626,-54.09684
2022-08-12 20:09:00+00:00,214.5915,18.9,11.77,47.84626,-54.09684
2022-08-12 20:19:00+00:00,221.0698,18.9,11.77,47.84626,-54.09684
2022-08-12 20:29:00+00:00,229.4998,18.9,11.77,47.84626,-54.09684
2022-08-12 20:39:00+00:00,234.0231,18.9,11.77,47.84626,-54.09684
2022-08-12 20:49:00+00:00,238.2564,18.9,11.77,47.84626,-54.09684
2022-08-12 20:59:00+00:00,247.7131,18.88,11.77,47.84626,-54.09684
2022-08-12 21:09:00+00:00,261.3448,18.8,11.77,47.84626,-54.09684
2022-08-12 21:19:01+00:00,267.6514,18.8,11.77,47.84626,-54.09684
2022-08-12 21:29:01+00:00,273.1464,18.8,11.77,47.84626,-54.09684
2022-08-12 21:39:01+00:00,282.3414,18.8,11.77,47.84626,-54.09684
2022-08-12 21:49:01+00:00,294.658,18.8,11.77,47.84626,-54.09684
2022-08-12 21:59:01+00:00,303.0031,18.8,11.77,47.84626,-54.09684
2022-08-12 22:09:01+00:00,313.5813,18.8,11.77,47.84626,-54.09684
2022-08-12 22:19:01+00:00,324.6763,18.8,11.7,47.84626,-54.09684
2022-08-12 22:29:01+00:00,336.5196,18.8,11.7,47.84626,-54.09684
2022-08-12 22:39:01+00:00,344.3997,18.8,11.7,47.84626,-54.09684
2022-08-12 22:49:01+00:00,351.5196,18.8,11.7,47.84626,-54.09684
2022-08-12 22:59:01+00:00,360.1312,18.8,11.7,47.84626,-54.09684
2022-08-12 23:09:01+00:00,367.098,18.8,11.7,47.84626,-54.09684
2022-08-12 23:19:01+00:00,369.7145,18.8,11.77,47.84626,-54.09684
2022-08-12 23:29:01+00:00,373.7496,18.8,11.77,47.84626,-54.09684
2022-08-12 23:39:01+00:00,378.1246,18.79,11.77,47.84626,-54.09684
2022-08-12 23:49:01+00:00,378.7079,18.8,11.77,47.84626,-54.09684
2022-08-12 23:59:01+00:00,377.5447,18.8,11.77,47.84626,-54.09684
